Printer-friendly version

IAU Minor Planet Center

Minor Planet Center

MPEC 2006-G13 : 2006 GB

The following Minor Planet Electronic Circular may be linked-to from your own Web pages, but must not otherwise be redistributed electronically.


Read MPEC 2006-G12 Read MPEC 2006-G14


M.P.E.C. 2006-G13                                Issued 2006 Apr. 3, 14:05 UT

     The Minor Planet Electronic Circulars contain information on unusual
         minor planets and routine data on comets.  They are published
   on behalf of Commission 20 of the International Astronomical Union by the
          Minor Planet Center, Smithsonian Astrophysical Observatory,
                          Cambridge, MA 02138, U.S.A.

                  Supported in part by the Brinson Foundation
                  Supported in part by the TABASGO Foundation
             Prepared using the Tamkin Foundation Computer Network

                              MPC@CFA.HARVARD.EDU
          URL http://cfa-www.harvard.edu/iau/mpc.html  ISSN 1523-6714

                                    2006 GB

Observations:
     K06G00B* C2006 04 02.18272 07 17 40.04 +25 09 35.4          18.2   EG013704
     K06G00B  C2006 04 02.19309 07 17 45.92 +25 10 14.1          18.5   EG013704
     K06G00B  C2006 04 02.20454 07 17 52.45 +25 10 58.2          18.6   EG013704
     K06G00B  C2006 04 02.21594 07 17 58.96 +25 11 41.7          18.5   EG013704
     K06G00B  C2006 04 02.22809 07 18 05.90 +25 12 27.4          18.5   EG013704
     K06G00B  C2006 04 02.93419 07 25 00.66 +25 57 06.6                 EG013J95
     K06G00B  C2006 04 02.93553 07 25 01.44 +25 57 11.2                 EG013J95
     K06G00B  C2006 04 02.93686 07 25 02.20 +25 57 15.9          18.5 R EG013J95
     K06G00B  C2006 04 03.07744 07 26 25.92 +26 06 20.3          18.2 R EG013H36
     K06G00B  C2006 04 03.08141 07 26 28.17 +26 06 34.5          17.5 R EG013H36
     K06G00B  C2006 04 03.08340 07 26 29.27 +26 06 42.3          17.9 R EG013H36
     K06G00B  C2006 04 03.08539 07 26 30.32 +26 06 48.8          17.9 R EG013H36
     K06G00B  C2006 04 03.16021 07 27 12.85 +26 11 29.4          18.4 V EG013G96
     K06G00B  C2006 04 03.16595 07 27 16.02 +26 11 49.8          18.3 V EG013G96
     K06G00B  C2006 04 03.17161 07 27 19.15 +26 12 09.9          18.3 V EG013G96
     K06G00B  C2006 04 03.17708 07 27 22.17 +26 12 29.5          18.2 V EG013G96

Observer details:
704 Lincoln Laboratory ETS, New Mexico.  Observers M. Bezpalko, L. Manguso,
    D. Torres, R. Kracke, M. Blythe, H. Love, G. Spitz.  Measurers J. Stuart,
    J. Kommers.  1.0-m f/2.15 reflector + CCD.
G96 Mt. Lemmon Survey.  Observer A. D. Grauer.  Measurers E. C. Beshore,
    E. J. Christensen, G. J. Garradd, A. R. Gibbs, A. D. Grauer, R. E. Hill,
    R. A. Kowalski, S. M. Larson, R. H. McNaught.  1.5-m reflector + CCD.
H36 Sandlot Observatory, Scranton.  Observer G. Hug.  0.30-m
    Schmidt-Cassegrain + CCD.
J95 Great Shefford.  Observer P. Birtwhistle.  0.40-m f/6.0 Schmidt-Cassegrain
    + CCD.

Orbital elements:
2006 GB                                             PHA, Earth MOID = 0.0102 AU
Epoch 2006 Mar. 6.0 TT = JDT 2453800.5                  MPC
M  71.09411              (2000.0)            P               Q
n   1.04743998     Peri.  243.25069     +0.38856911     -0.92134196
a   0.9602477      Node   183.94201     +0.89508000     +0.38051108
e   0.1781571      Incl.   10.01890     +0.21873694     +0.07962610
P   0.94           H   20.2           G   0.15           U   8
Residuals in seconds of arc
060402 704  0.0   0.6+    060402 J95  0.4+  0.2-    060403 G96  0.5+  0.3+
060402 704  0.1-  0.3-    060402 J95  0.4+  0.3-    060403 G96  0.3+  0.2+
060402 704  0.1+  0.1+    060403 H36  0.6-  0.2+    060403 G96  0.2+  0.1+
060402 704  0.2+  0.3+    060403 H36  0.1+  0.0     060403 G96  0.0   0.3+
060402 704  0.1+  0.0     060403 H36  0.0   0.6+
060402 J95  0.1+  0.1+    060403 H36  0.7-  0.2-

Ephemeris:
2006 GB                  a,e,i = 0.96, 0.18, 10                  q = 0.7892
Date    TT    R. A. (2000) Decl.     Delta      r     Elong.  Phase     V
2006 03 26    06 04.94   +15 21.6    0.105    0.996    86.1    87.8    18.4
2006 04 05    07 44.73   +27 55.4    0.121    1.024    98.1    75.2    18.3
2006 04 15    09 06.52   +33 16.4    0.153    1.050   103.8    68.1    18.6
2006 04 25    10 05.94   +34 17.1    0.192    1.073   105.4    64.7    19.1
2006 05 05    10 49.61   +33 17.6    0.234    1.092   104.8    63.2    19.5
2006 05 15    11 23.69   +31 21.4    0.278    1.108   103.2    62.6    19.9
2006 05 25    11 52.04   +28 54.8    0.321    1.120   101.1    62.6    20.2
2006 06 04    12 17.11   +26 08.5    0.363    1.127    98.6    62.8    20.5
2006 06 14    12 40.29   +23 09.5    0.402    1.131    96.1    63.2    20.7
2006 06 24    13 02.37   +20 01.5    0.439    1.131    93.4    63.8    20.9
2006 07 04    13 24.02   +16 46.2    0.472    1.126    90.7    64.5    21.1
2006 07 14    13 45.60   +13 26.1    0.501    1.118    88.1    65.3    21.2
2006 07 24    14 07.34   +10 02.3    0.525    1.105    85.4    66.4    21.4
2006 08 03    14 29.56   +06 35.3    0.543    1.089    82.8    67.6    21.4
2006 08 13    14 52.39   +03 06.5    0.555    1.069    80.2    69.0    21.5
2006 08 23    15 15.95   -00 23.8    0.561    1.046    77.6    70.8    21.5
2006 09 02    15 40.42   -03 55.5    0.560    1.019    75.0    73.0    21.5
2006 09 12    16 05.82   -07 28.5    0.552    0.991    72.4    75.5    21.5
2006 09 22    16 32.15   -11 04.1    0.537    0.960    69.7    78.7    21.5
2006 10 02    16 59.34   -14 44.4    0.514    0.928    66.9    82.5    21.5
2006 10 12    17 27.06   -18 33.2    0.485    0.897    63.8    87.2    21.5
2006 10 22    17 54.74   -22 37.8    0.449    0.867    60.4    92.8    21.4

Kyle E. Smalley              (C) Copyright 2006 MPC           M.P.E.C. 2006-G13

Read MPEC 2006-G12 Read MPEC 2006-G14


Our Web policy. Index to the CBAT/MPC/ICQ pages.


Valid HTML 4.01!